www.pogodaiklimat.ru

Погода и климат >> Архив погоды >> Россия >> Чукотка >> Бухта Амбарчик


АРХИВ ПОГОДЫ в Бухте Амбарчик

Время (UTC), дата Ветер
(напр.,м/с)
 
Видим.   Явления Облачность Т
(С)
Тd
(С)
f
(%)
Тe
(С)
Тes
(С)
Комфортность P
(гПа)
Po
(гПа)
Тmin
(С)
Tmax
(С)
R
(мм)
R24
(мм)
S
(см)
21 11.02 ЮЗ 5
{9}
10 км позёмок ясно -34.4 -38.6 65 -48 -48 опасность
обморожения
1015.1 1011.7 -34.8 14
00 12.02 З 8
{9}
10 км позёмок 8/0
[Ci fib]
-36.7 -41.1 64 -54 -54 опасность
обморожения
1013.9 1010.5 -36.7
03 12.02 ЮЗ 10-11
{12}
4000 м метель 6/0
[Ci fib]
-35.6 -39.8 65 -54 -54 опасность
обморожения
1013.3 1009.9
06 12.02 ЮЗ 10-12
{12}
4000 м метель 8/0
[Ci fib]
-37.0 -41.3 64 -56 -56 опасность
обморожения
1014.4 1011.0
09 12.02 ЮЗ 10-11
{12}
4000 м метель 8/0
[Ci fib]
-38.2 -42.8 62 -58 -58 опасность
обморожения
1015.7 1012.3 -34.0
12 12.02 ЮЗ 10-11
{13}
4000 м метель 4/0
[Ci fib]
-35.5 -39.4 67 -54 -54 опасность
обморожения
1016.2 1012.8
15 12.02 ЮЗ 13-14
{14}
4000 м метель 4/0
[Ci fib]
-33.3 -37.2 68 -53 -53 опасность
обморожения
1016.0 1012.6
18 12.02 ЮЗ 13-14
{14}
4000 м метель 3/0
[Ci fib]
-33.5 -37.6 66 -53 -53 опасность
обморожения
1016.6 1013.2
21 12.02 ЮЗ 12-13
{14}
4000 м метель 6/0
[Ci fib]
-35.0 -39.1 66 -55 -55 опасность
обморожения
1018.2 1014.8 -38.3 14
00 13.02 ЮЗ 13-16
{17}
1000 м метель 6/0
[Ci fib]
-34.0 -38.0 67 -54 -54 опасность
обморожения
1019.3 1015.9
03 13.02 ЮЗ 14-15
{16}
1000 м метель 6/0
[Ci fib]
-33.3 -37.2 68 -54 -54 опасность
обморожения
1020.1 1016.7
06 13.02 ЮЗ 12-14
{16}
4000 м метель 6/0
[Ci fib]
-33.1 -37.0 68 -52 -52 опасность
обморожения
1021.7 1018.3
09 13.02 ЮЗ 10-12
{14}
4000 м метель 4/0
[Ci fib]
-33.0 -36.9 68 -51 -51 опасность
обморожения
1023.9 1020.5 -32.6
12 13.02 ЮЗ 10-11
{14}
4000 м метель 4/0
[Ci fib]
-32.5 -36.4 68 -50 -50 опасность
обморожения
1025.2 1021.8
15 13.02 З 7
{12}
10 км позёмок 3/0
[Ci fib]
-35.5 -39.8 65 -52 -52 опасность
обморожения
1025.6 1022.2
18 13.02 штиль 0
{8}
10 км {метель} 3/0
[Ci fib]
-35.7 -40.0 64 -36 -36 опасность
обморожения
1025.7 1022.3
21 13.02 СЗ 2
{4}
20 км 3/0
[Ci fib]
-36.8 -41.2 63 -45 -45 опасность
обморожения
1024.6 1021.2 -37.3 14
00 14.02 ЮВ 2
{4}
20 км 4/0
[Ci fib]
-33.6 -37.6 67 -42 -41 опасность
обморожения
1023.4 1020.0
03 14.02 ЮЗ 1
{3}
20 км 3/0
[Ci fib]
-34.2 -38.4 66 -39 -39 опасность
обморожения
1020.8 1017.4
06 14.02 ЮЗ 1
{3}
20 км ясно -34.7 -38.8 66 -39 -39 опасность
обморожения
1019.0 1015.6
09 14.02 ЮЗ 2
{3}
20 км ясно -36.7 -41.0 64 -45 -45 опасность
обморожения
1017.6 1014.2 -30.9
12 14.02 штиль 0
{2}
20 км ясно -36.6 -41.0 64 -37 -37 опасность
обморожения
1015.8 1012.4
15 14.02 штиль 0
{1}
20 км ясно -38.0 -42.5 62 -38 -38 опасность
обморожения
1013.6 1010.2
18 14.02 штиль 0
{3}
20 км ясно -38.3 -42.8 62 -38 -38 опасность
обморожения
1011.7 1008.3
21 14.02 В 4
{5}
20 км ясно -38.4 -43.0 62 -52 -52 опасность
обморожения
1009.6 1006.2 -39.3 14
00 15.02 В 1
{4}
20 км 8/0
[Ci fib]
-37.6 -42.0 63 -43 -42 опасность
обморожения
1007.7 1004.3 -39.5
03 15.02 В 2
{4}
20 км 9/0
[Ac trans Ci fib]
-35.9 -40.1 65 -44 -44 опасность
обморожения
1005.7 1002.4
06 15.02 ЮВ 2
{4}
20 км 9/0
[Ac trans Ci fib]
-35.6 -39.9 64 -44 -44 опасность
обморожения
1004.3 1001.0
09 15.02 З 1
{4}
20 км 9/0
[Ac trans Ci fib]
-33.5 -37.6 66 -38 -38 опасность
обморожения
1003.7 1000.4 -33.4
12 15.02 ЮЗ 4
{5}
20 км 9/0
[Ac trans Ci fib]
-34.8 -38.9 66 -47 -47 опасность
обморожения
1003.2 999.9
15 15.02 З 6
{7}
20 км позёмок 9/0
[Ac trans Ci fib]
-34.6 -38.7 66 -49 -49 опасность
обморожения
1002.8 999.5
18 15.02 ЮЗ 5
{7}
20 км позёмок 8/0
[Ac trans Ci fib]
-35.8 -40.1 64 -50 -50 опасность
обморожения
1002.3 999.0
21 15.02 З 4
{6}
20 км {метель} 8/0
[Ci fib]
-36.7 -41.1 64 -49 -49 опасность
обморожения
1002.4 999.1 -36.8 14
00 16.02 З 4
{5}
20 км {метель} 8/0
[Ci fib]
-36.6 -40.9 64 -49 -49 опасность
обморожения
1001.8 998.5 -37.1
03 16.02 З 2
{4}
20 км 8/0
[Ac trans Ci fib]
-35.3 -39.5 65 -44 -43 опасность
обморожения
1000.4 997.1
06 16.02 З 2
{4}
20 км 9/0
[Ac trans Ci fib]
-33.9 -37.9 67 -42 -42 опасность
обморожения
1000.0 996.7
09 16.02 штиль 0
{4}
20 км 8/3 300 м
[Sc Ac trans Ci fib]
-32.9 -36.8 68 -33 -33 опасность
обморожения
998.5 995.2 -32.8
12 16.02 штиль 0
{2}
20 км 9/6 300 м
[Sc Ac trans Ci fib]
-30.2 -33.8 71 -30 -30 997.3 994.1
15 16.02 ЮЗ 4
{4}
20 км 10/10 300 м
[Sc]
-28.1 -31.5 73 -39 -39 опасность
обморожения
995.1 991.9
18 16.02 З 5
{7}
20 км позёмок 9/8 300 м
[Sc Ci fib]
-25.4 -28.4 76 -37 -37 опасность
обморожения
994.1 990.9
21 16.02 ЮЗ 6
{8}
4000 м слаб. ливневой снег {метель} 10/10 300 м
[Cb cap]
-23.8 -26.6 78 -36 -36 опасность
обморожения
993.4 990.2 -32.9 0.0 14
00 17.02 ЮЗ 8
{9}
10 км позёмок {ливн. осадки} 10/10 300 м
[Sc]
-23.0 -25.6 79 -36 -36 опасность
обморожения
994.0 990.8
03 17.02 З 8
{10}
4000 м слаб. ливневой снег {метель} 10/10 300 м
[Cb cap]
-23.0 -25.7 78 -36 -36 опасность
обморожения
994.6 991.4
06 17.02 З 10-12
{12}
4000 м слаб. ливневой снег {метель} 10/10 300 м
[Cb cap]
-23.6 -26.4 78 -38 -38 опасность
обморожения
996.4 993.1
09 17.02 З 12-13
{14}
4000 м метель {ливн. осадки} 10/8 300 м
[Sc Ac trans Ci fib]
-24.4 -27.2 78 -41 -41 опасность
обморожения
998.1 994.8 -22.6 0.3
12 17.02 ЮЗ 15-17
{17}
1000 м метель {ливн. осадки} 8/6 300 м
[Sc Ac trans Ci fib]
-25.6 -28.6 76 -44 -44 опасность
обморожения
999.4 996.2
15 17.02 ЮЗ 15-18
{18}
1000 м метель 8/6 300 м
[Sc Ac trans Ci fib]
-27.1 -30.4 73 -46 -46 опасность
обморожения
1000.8 997.6
18 17.02 ЮЗ 15-17
{19}
1000 м метель 8/4 300 м
[Sc Ci fib]
-28.1 -31.3 74 -47 -47 опасность
обморожения
1002.3 999.0
21 17.02 ЮЗ 14-17
{18}
1000 м метель 8/4 300 м
[Sc Ci fib]
-27.8 -30.9 75 -46 -46 опасность
обморожения
1004.1 1000.8 -28.3 15
00 18.02 ЮЗ 14-16
{18}
1000 м метель 8/4 300 м
[Sc Ci fib]
-28.6 -31.9 73 -47 -47 опасность
обморожения
1005.7 1002.4 -28.6
03 18.02 ЮЗ 15-17
{17}
1000 м метель 8/4 300 м
[Sc Ci fib]
-28.8 -32.1 73 -48 -48 опасность
обморожения
1006.2 1002.9
06 18.02 ЮЗ 14-16
{18}
1000 м метель 9/3 300 м
[Sc Ci fib]
-28.6 -31.9 73 -47 -47 опасность
обморожения
1008.0 1004.7
09 18.02 ЮЗ 13-16
{17}
1000 м метель 9/4 300 м
[Sc Ci fib]
-29.1 -32.5 72 -47 -47 опасность
обморожения
1009.7 1006.4 -27.8
12 18.02 ЮЗ 13-15
{16}
1000 м метель 6/4 300 м
[Sc Ac trans Ci fib]
-31.0 +34.7 100 -50 -50 опасность
обморожения
1011.7 1008.4
15 18.02 ЮЗ 11-13
{15}
10 км позёмок 6/4 300 м
[Sc Ac trans Ci fib]
-31.0 -34.7 70 -49 -49 опасность
обморожения
1013.1 1009.8
18 18.02 ЮЗ 10-11
{13}
10 км позёмок 6/3 300 м
[Sc Ci fib]
-31.6 -35.5 68 -49 -49 опасность
обморожения
1015.4 1011.2

 

Местоположение метеостанции Бухта Амбарчик (Чукотка, Россия): широта 69.62 долгота 162.30 высота над уровнем моря 23 м.

В архиве по умолчанию представлена погода в Бухте Амбарчик за последнюю неделю. Архивные данные за месяц целиком и за предыдущие месяцы, начиная с января 2011 года, Вы можете получить, выбрав интересующий диапазон дат из раскрывающегося списка и нажав кнопку "Ввод!".


*Определитесь, кто Вы:
робот инопланетянин человек

Внимание! Время в таблицах - всемирное. Для получения местного времени необходимо прибавить поправку, которая равна 12 ч.

Смотрите также архив погоды в соседних городах и на ближайших метеорологических станциях:

Погода в Черском (Якутия, Россия) (107 км)
Погода в Анюйске (Чукотка, Россия) (145 км)
Погода в Раучуе (Чукотка, Россия) (164 км)
Погода в Константиновской (Чукотка, Россия) (170 км)
Погода в Колымской (Якутия, Россия) (177 км)
Погода в Островном (Чукотка, Россия) (182 км)
Погода на Айон Острове (Чукотка, Россия) (218 км)
Погода в Билибино (Чукотка, Россия) (240 км)
Погода в Певеке (Чукотка, Россия) (305 км)
Погода в Андрюшкино (Якутия, Россия) (309 км)

Пояснения к столбцам:

Ветер - указаны скорость ветра в м/с - средняя за 10 мин, порывы в срок и между сроками (в фигурных скобках) и направление, откуда дует ветер: С - северный, СВ - северо-восточный, В - восточный, ЮВ - юго-восточный, Ю - южный, ЮЗ - юго-западный, З - западный, СЗ - северо-западный.
Видимость - горизонтальная дальность видимости в метрах или километрах. При видимости от 1 до 10 км при отсутствии осадков обычно наблюдается дымка, при ухудшении видимости до 1 км и менее - туман. В сухую погоду видимость может ухудшаться дымом, пылью или мглою.
Явления - указаны атмосферные явления, наблюдавшиеся в срок или в последний час перед сроком; фигурными скобками обозначены явления, наблюдавшиеся между сроками (за 1-3 часа до срока); квадратными скобками обозначены град или гололедные отложения с указанием их диаметра в мм.
Облачность - указаны через наклонную черту общая и нижняя облачность в баллах и высота нижней границы облаков в метрах; квадратными скобками обозначены формы облаков: Ci - перистые, Cs - перисто-слоистые, Cc - перисто-кучевые, Ac - высококучевые, As - высокослоистые, Sc - слоисто-кучевые, Ns - слоисто-дождевые, Cu - кучевые, Cb - кучево-дождевые. Подробнее классификацию облаков см. в Атласе облаков (PDF).
T - Температура воздуха - температура, измеренная на высоте 2 м над землей.
Td - Температура точки росы - температура, при понижении до которой содержащийся в воздухе водяной пар достигнет насыщения.
f - Относительная влажность воздуха - влажноcть воздуха, измеренная на высоте 2 м над землей.
Te - Эффективная температура - температура, которую ощущает одетый по сезону человек в тени. Характеристика душности погоды. При расчете учитывается влияние влажности воздуха и скорости ветра на теплоощущения человека.
Tes - Эффективная температура на солнце - температура, которую ощущает человек, с поправкой на солнечный нагрев. Характеристика знойности погоды. Зависит от высоты солнца над горизонтом, облачности и скорости ветра. Ночью, в пасмурную погоду, а также при ветре 12 м/с и более поправка равна нулю.
P - Атмосферное давление - приведенное к уровню моря атмосферное давление.
Po - Атмосферное давление - измеренное на уровне метеостанции атмосферное давление.
Tmin - Минимальная температура - минимум температуры воздуха на высоте 2 м над землей.
Tmax - Максимальная температура - максимум температуры воздуха на высоте 2 м над землей.
R - Количество осадков - Количество выпавших осадков за период времени, мм. При наведении курсора мыши на число - период времени, за который выпало указанное количество осадков.
R24 - Количество осадков - Количество выпавших осадков за 24 часа, мм.
S - Снежный покров - Высота снежного покрова, см. При наведении курсора мыши на число - состояние снежного покрова и степень покрытия местности в баллах.